AUA226 EDLP-LHBP

Flight info

Callsign AUA226
Flight time N/A
Altitude 37000
Route WRB1X WRB DCT NOMKA DCT OMELO DCT GOLOP DCT ODNEM DCT NIT/N0396F230 M748 ARFOX
Aircraft A320/M-SDE3FGHIRWY/LB1

Departure

Time 2026-04-30 22:15
Airport Paderborn Lippstadt Airport (EDLP)

Arrival

Time N/A
Airport Budapest Liszt Ferenc International Airport (LHBP)
Time Latitude Longitude Altitude Speed Heading
2026-04-30 21:56 51.61080 8.61867 731 ft 0 kts 146°
2026-04-30 22:08 51.61084 8.61863 730 ft 4 kts 147°
2026-04-30 22:08 51.61108 8.61841 731 ft 4 kts 159°
2026-04-30 22:08 51.61133 8.61832 731 ft 4 kts 188°
2026-04-30 22:08 51.61151 8.61845 729 ft 1 kts 237°
2026-04-30 22:09 51.61153 8.61851 729 ft 0 kts 237°
2026-04-30 22:11 51.61148 8.61839 729 ft 5 kts 237°
2026-04-30 22:11 51.61117 8.61762 730 ft 10 kts 237°
2026-04-30 22:11 51.61077 8.61665 731 ft 13 kts 237°
2026-04-30 22:12 51.61024 8.61533 731 ft 13 kts 237°
2026-04-30 22:12 51.60975 8.61415 731 ft 12 kts 237°
2026-04-30 22:12 51.60962 8.61301 729 ft 12 kts 282°
2026-04-30 22:12 51.60985 8.61114 720 ft 19 kts 271°
2026-04-30 22:13 51.60931 8.60947 721 ft 16 kts 238°
2026-04-30 22:13 51.60870 8.60796 716 ft 16 kts 237°
2026-04-30 22:13 51.60808 8.60649 714 ft 15 kts 233°
2026-04-30 22:13 51.60756 8.60508 717 ft 14 kts 254°
2026-04-30 22:14 51.60781 8.60381 715 ft 11 kts 315°
2026-04-30 22:14 51.60841 8.60351 716 ft 10 kts
2026-04-30 22:14 51.60913 8.60414 717 ft 6 kts 55°
2026-04-30 22:14 51.60920 8.60431 714 ft 8 kts 56°
2026-04-30 22:15 51.61099 8.60873 716 ft 84 kts 57°
2026-04-30 22:15 51.61538 8.61949 702 ft 142 kts 57°
2026-04-30 22:15 51.62091 8.63327 1284 ft 145 kts 59°
2026-04-30 22:15 51.62644 8.64681 2015 ft 145 kts 64°
2026-04-30 22:16 51.63218 8.66073 2412 ft 160 kts 67°
2026-04-30 22:16 51.63868 8.67680 2666 ft 181 kts 69°
2026-04-30 22:17 51.64839 8.74513 3777 ft 240 kts 83°
2026-04-30 22:17 51.65017 8.76327 4282 ft 243 kts 91°
2026-04-30 22:17 51.63649 8.81184 5755 ft 249 kts 125°
2026-04-30 22:18 51.62644 8.83468 6649 ft 252 kts 124°
2026-04-30 22:18 51.60592 8.88149 8271 ft 259 kts 123°
2026-04-30 22:19 51.58562 8.93034 9891 ft 266 kts 114°
2026-04-30 22:19 51.57779 8.95760 10666 ft 270 kts 112°
2026-04-30 22:19 51.56128 9.01666 11188 ft 314 kts 112°
2026-04-30 22:20 51.55219 9.04938 11659 ft 326 kts 112°
2026-04-30 22:20 51.53336 9.11660 13033 ft 334 kts 112°
2026-04-30 22:20 51.52372 9.15083 13740 ft 337 kts 112°
2026-04-30 22:21 51.51403 9.18527 14415 ft 341 kts 112°
2026-04-30 22:21 51.50421 9.22017 15019 ft 345 kts 112°
2026-04-30 22:21 51.49422 9.25548 15620 ft 348 kts 112°
2026-04-30 22:21 51.48413 9.29101 16210 ft 352 kts 112°
2026-04-30 22:22 51.47388 9.32703 16783 ft 356 kts 112°
2026-04-30 22:22 51.46364 9.36302 17344 ft 360 kts 112°
2026-04-30 22:22 51.45317 9.39983 17910 ft 364 kts 112°
2026-04-30 22:22 51.44258 9.43709 18461 ft 368 kts 111°
2026-04-30 22:23 51.43190 9.47463 18976 ft 372 kts 111°
2026-04-30 22:23 51.42110 9.51253 19442 ft 375 kts 111°
2026-04-30 22:23 51.41018 9.55074 19944 ft 378 kts 111°
2026-04-30 22:23 51.39918 9.58910 20421 ft 381 kts 111°
2026-04-30 22:24 51.38817 9.62733 20922 ft 384 kts 111°
2026-04-30 22:24 51.37695 9.66621 21410 ft 386 kts 111°
2026-04-30 22:24 51.36559 9.70546 21868 ft 389 kts 111°
2026-04-30 22:24 51.35418 9.74491 22321 ft 392 kts 111°
2026-04-30 22:25 51.34267 9.78477 22775 ft 395 kts 111°
2026-04-30 22:25 51.33109 9.82487 23223 ft 398 kts 111°
2026-04-30 22:25 51.31940 9.86525 23666 ft 401 kts 111°
2026-04-30 22:25 51.30761 9.90591 24074 ft 405 kts 111°
2026-04-30 22:26 51.28370 9.98799 24797 ft 410 kts 111°
2026-04-30 22:26 51.27158 10.02939 25143 ft 412 kts 111°
2026-04-30 22:26 51.25955 10.07046 25501 ft 415 kts 111°
2026-04-30 22:27 51.24730 10.11227 25844 ft 417 kts 111°
2026-04-30 22:27 51.23496 10.15426 26192 ft 420 kts 111°
2026-04-30 22:27 51.20992 10.23914 26853 ft 425 kts 111°
2026-04-30 22:28 51.18456 10.32492 27517 ft 429 kts 111°
2026-04-30 22:28 51.17175 10.36815 27849 ft 432 kts 111°
2026-04-30 22:29 51.13288 10.49889 28803 ft 439 kts 111°
2026-04-30 22:29 51.11988 10.54241 29119 ft 440 kts 111°